[[{"header":{"parameterUnit":"m.s-1","parameterCategory":1,"la1":30.2991,"la2":30.254,"lo1":-89.0895,"lo2":-89.0444,"dy":0.0017,"dx":0.0017,"nx":28,"ny":28,"refTime":"2024-02-01T03:00:00:Z","depth":0,"parameterNumber":2,"parameterNumberName":"U-component_of_WINDS"},"data":[0,0,0,0,0,0,0,0,0,0,0,0,0,0,0,0,0,0,0,0,0,0,0,0,0,0,0,0,0,0,0,0,0,0,0,0,0,0,0,0,0,0,0,0,0,0,0,0,0,0,0,0,0,0,0,0,0,0,-1.9886,-1.9886,0,-1.9918,-1.9918,-1.9918,-1.9842,-1.984,-1.9838,-1.9835,-1.987,-1.9873,-1.9876,0,0,0,0,0,0,0,0,0,0,0,0,0,-1.9762,-1.9765,-1.9886,-1.9886,-1.9887,-1.9918,-1.9918,-1.9919,-1.9843,-1.984,-1.9837,-1.9834,-1.9869,-1.9873,-1.9877,0,0,0,0,0,0,0,0,0,0,0,0,0,-1.9807,-1.9766,-1.9886,-1.9853,-1.985,-1.9918,-1.9918,-1.9919,-1.9843,-1.984,-1.9836,-1.9833,-1.9868,-1.9872,-1.9877,-1.9979,0,0,-1.9892,-1.9894,0,0,0,0,0,0,0,0,-1.9805,-1.9812,-1.9857,-1.9855,-1.9852,-1.9872,-1.9887,-1.9939,-1.9844,-1.9846,-1.9835,-1.9831,-1.9874,-1.9878,-1.9892,-1.9981,-1.9982,-1.9892,-1.9895,-1.9897,-1.9898,0,0,0,0,0,0,0,-1.9802,-1.981,-1.9899,-1.9858,-1.9855,-1.9837,-1.9839,-1.9897,-1.988,-1.9846,-1.984,-1.9845,-1.9872,-1.9887,-1.9892,-1.9983,-1.9892,-1.9896,-1.9899,-1.9901,-2.0159,-2.0163,0,0,0,0,0,0,-1.9803,-1.9808,-1.9898,-1.9899,-1.9819,-1.9842,-1.9845,-1.987,-1.9879,-1.9877,-1.9848,-1.9841,-1.9881,-1.9887,-1.9893,-2.0015,-1.9897,-1.9901,-1.9904,-2.0155,-2.016,-2.0164,0,0,0,0,0,0,-1.98,-1.9811,-1.9896,-1.9852,-1.9862,-1.9848,-1.9877,-1.9872,-1.9888,-1.9881,-1.9878,-1.9867,-1.9878,-1.9886,-1.9959,-2.0015,-1.9904,-1.9908,-2.015,-2.0156,-2.0162,-2.0258,0,0,0,0,0,0,-1.9797,-1.9811,-1.9849,-1.9854,-1.9864,-1.9961,-1.988,-1.9875,-1.9896,-1.9887,-1.9898,-1.9896,-1.9876,-1.9952,-1.9963,-2.0019,-1.9912,-2.0145,-2.0153,-2.016,-2.025,-2.0267,-2.0281,0,0,0,0,0,-1.9793,-1.9875,-1.9851,-1.9863,-1.9911,-1.9964,-1.997,-1.9945,-1.9901,-1.9939,-1.9935,-1.9896,-2.0006,-1.996,-1.9972,-2.0031,-2.0141,-2.0151,-2.0159,-2.0243,-2.0263,-2.0281,0,0,0,0,0,0,-1.9877,-1.9875,-1.9849,-1.9934,-1.995,-1.9951,-1.9999,-1.9967,-1.9996,-1.9987,-1.9956,-1.9959,-2.0038,-2.0041,-1.9989,-2.0131,-2.0066,-2.0078,-2.0126,-2.0145,-2.0161,-2.0159,-1.9916,0,0,0,0,0,-1.9906,-1.9948,-1.9944,-2.002,-2.0029,-2.0013,-2.0035,-2.0014,-2.0029,-2.0036,-2.0037,-2.0054,-2.0092,-2.0119,-2.0154,-2.0249,-2.0252,-2.0296,-2.0311,-2.0324,-2.0335,-2.0388,-2.0409,-2.0193,-2.0193,-2.0193,0,0,-1.9965,-1.9969,-1.9998,-2.0037,-2.0046,-2.0092,-2.0019,-2.007,-2.0104,-2.0044,-2.0112,-2.0114,-2.0131,-2.0216,-2.0253,-2.0221,-2.0395,-2.0336,-2.0346,-2.035,-2.04,-2.042,-2.0438,-2.02,-2.0198,-2.0197,0,0,-2.0097,-2.0103,-2.0168,-2.018,-2.0195,-2.0184,-2.02,-2.0206,-2.0205,-2.0273,-2.023,-2.027,-2.0337,-2.0351,-2.0367,-2.0506,-2.0472,-2.0518,-2.0601,-2.0653,-2.067,-2.0684,-2.0736,-2.0755,-2.0529,-2.053,-2.053,0,-2.0169,-2.0235,-2.0206,-2.026,-2.028,-2.0227,-2.0294,-2.0306,-2.0333,-2.0348,-2.0311,-2.0395,-2.0403,-2.0491,-2.0525,-2.0539,-2.0558,-2.0518,-2.0669,-2.0684,-2.0698,-2.0746,-2.0766,-2.0535,-2.0535,-2.0534,-2.0533,0,-2.0325,-2.0371,-2.0422,-2.0449,-2.0474,-2.0534,-2.0515,-2.0544,-2.0521,-2.0515,-2.0586,-2.0593,-2.063,-2.0649,-2.0627,-2.0735,-2.0715,-2.0674,-2.061,-2.0724,-2.077,-2.0788,-2.0543,-2.0541,-2.054,-2.0538,0,0,-2.0511,-2.0521,-2.0541,-2.0553,-2.0567,-2.0603,-2.0662,-2.0697,-2.0723,-2.0744,-2.0793,-2.0852,-2.0814,-2.0833,-2.0812,-2.0858,-2.097,-2.0812,-2.0812,-2.0843,-2.1092,-2.1124,-2.1146,-2.0947,-2.095,-2.0953,-2.1092,0,-2.0643,-2.0743,-2.0719,-2.0818,-2.0862,-2.0813,-2.0864,-2.0879,-2.0875,-2.0912,-2.0907,-2.095,-2.0897,-2.0908,-2.095,-2.0948,-2.102,-2.0937,-2.0994,-2.0997,-2.0994,-2.117,-2.1203,-2.1334,-2.1109,-2.1112,-2.1114,0,-2.081,-2.0837,-2.0941,-2.095,-2.0967,-2.1014,-2.1045,-2.1081,-2.1097,-2.1091,-2.1112,-2.1083,-2.1143,-2.1076,-2.1159,-2.1103,-2.1125,-2.1127,-2.1131,-2.1137,-2.1064,-2.1182,-2.1375,-2.1395,-2.1141,-2.1139,-2.1137,0,-2.0938,-2.1,-2.1071,-2.1083,-2.1094,-2.1128,-2.1135,-2.1147,-2.1171,-2.1198,-2.1214,-2.1248,-2.1267,-2.1295,-2.1277,-2.123,-2.1363,-2.1295,-2.1361,-2.1362,-2.1393,-2.1392,-2.1594,-2.1404,-2.1404,-2.1404,-2.1403,0,-2.1089,-2.1155,-2.1129,-2.1173,-2.1247,-2.1218,-2.1292,-2.1293,-2.1305,-2.1349,-2.1308,-2.135,-2.1323,-2.1363,-2.1349,-2.1421,-2.1429,-2.1427,-2.1423,-2.1432,-2.1433,-2.1447,-2.1439,-2.1409,-2.1408,-2.1407,-2.1406,0,-2.1245,-2.123,-2.1304,-2.1309,-2.1312,-2.1366,-2.137,-2.1412,-2.1404,-2.1461,-2.1472,-2.1461,-2.1507,-2.1491,-2.154,-2.1531,-2.1623,-2.1606,-2.1617,-2.1614,-2.1682,-2.1677,-2.1902,-2.1931,-2.1721,-2.1723,-2.1725,0,-2.1343,-2.1393,-2.1403,-2.143,-2.1439,-2.1482,-2.1506,-2.148,-2.1507,-2.153,-2.157,-2.1612,-2.1644,-2.172,-2.1717,-2.1755,-2.174,-2.1816,-2.1745,-2.1754,-2.1744,-2.1742,-2.1748,-2.1831,-2.1833,-2.1835,-2.1837,0,-2.152,-2.151,-2.1546,-2.158,-2.161,-2.1635,-2.1657,-2.1681,-2.1657,-2.169,-2.1736,-2.1761,-2.1812,-2.1855,-2.1889,-2.1896,-2.1864,-2.1859,-2.1877,-2.1888,-2.1893,-2.1893,-2.1658,-2.1855,-2.1853,-2.1851,-2.1851,-2.185,-2.1651,-2.1694,-2.1708,-2.175,-2.1764,-2.1786,-2.1826,-2.1823,-2.1861,-2.19,-2.1883,-2.1937,-2.1954,-2.1997,-2.2009,-2.2052,-2.2022,-2.2048,-2.2054,-2.2062,-2.2071,-2.1885,-2.2058,-2.2057,-2.2056,-2.2056,-2.2056,0,-2.1827,-2.1834,-2.1873,-2.1905,-2.1939,-2.1904,-2.1927,-2.1958,-2.2006,-2.2023,-2.2057,-2.2111,-2.2153,-2.2154,-2.2193,-2.2227,-2.2214,-2.2239,-2.2237,-2.224,-2.2094,-2.2076,-2.225,-2.225,-2.225,-2.2249,-2.2249,-2.2249,-2.1923,-2.1994,-2.1987,-2.2066,-2.2072,-2.2125,-2.2141,-2.2162,-2.2176,-2.2239,-2.2273,-2.2273,-2.2285,-2.2325,-2.2363,-2.2362,-2.2379,-2.2411,-2.2405,-2.2269,-2.225,-2.2231,-2.2214,-2.2414,-2.2414,-2.2547,-2.2548,-2.2549]},{"header":{"parameterUnit":"m.s-1","parameterCategory":1,"la1":30.2991,"la2":30.254,"lo1":-89.0895,"lo2":-89.0444,"dy":0.0017,"dx":0.0017,"nx":28,"ny":28,"refTime":"2024-02-01T03:00:00:Z","depth":0,"parameterNumber":3,"parameterNumberName":"V-component_of_WINDS"},"data":[0,0,0,0,0,0,0,0,0,0,0,0,0,0,0,0,0,0,0,0,0,0,0,0,0,0,0,0,0,0,0,0,0,0,0,0,0,0,0,0,0,0,0,0,0,0,0,0,0,0,0,0,0,0,0,0,0,0,-2.0734,-2.0734,0,-2.0746,-2.0746,-2.0746,-2.073,-2.0729,-2.0729,-2.0728,-2.074,-2.0741,-2.0741,0,0,0,0,0,0,0,0,0,0,0,0,0,-2.0696,-2.0697,-2.0734,-2.0734,-2.0735,-2.0746,-2.0746,-2.0746,-2.073,-2.0729,-2.0728,-2.0728,-2.0739,-2.074,-2.0742,0,0,0,0,0,0,0,0,0,0,0,0,0,-2.0711,-2.0698,-2.0734,-2.0728,-2.0727,-2.0746,-2.0746,-2.0746,-2.073,-2.0729,-2.0728,-2.0727,-2.0739,-2.074,-2.0742,-2.0767,0,0,-2.0746,-2.0746,0,0,0,0,0,0,0,0,-2.071,-2.0712,-2.0728,-2.0728,-2.0728,-2.0735,-2.0737,-2.0753,-2.073,-2.0729,-2.0728,-2.0727,-2.0739,-2.074,-2.0744,-2.0768,-2.0768,-2.0746,-2.0746,-2.0747,-2.0747,0,0,0,0,0,0,0,-2.0709,-2.0712,-2.0739,-2.0729,-2.0728,-2.0724,-2.0725,-2.074,-2.0739,-2.0729,-2.0728,-2.0729,-2.0739,-2.0743,-2.0745,-2.0769,-2.0746,-2.0747,-2.0748,-2.0748,-2.0812,-2.0813,0,0,0,0,0,0,-2.0709,-2.0711,-2.0738,-2.0739,-2.0717,-2.0725,-2.0726,-2.0734,-2.0739,-2.0738,-2.073,-2.0729,-2.0741,-2.0743,-2.0745,-2.0774,-2.0747,-2.0748,-2.0749,-2.0811,-2.0812,-2.0813,0,0,0,0,0,0,-2.0708,-2.0712,-2.0738,-2.0725,-2.0728,-2.0727,-2.0735,-2.0735,-2.0739,-2.0739,-2.0739,-2.0735,-2.0741,-2.0743,-2.0762,-2.0774,-2.0749,-2.075,-2.081,-2.0812,-2.0813,-2.0834,0,0,0,0,0,0,-2.0707,-2.0712,-2.0722,-2.0725,-2.0729,-2.0755,-2.0736,-2.0735,-2.0741,-2.0739,-2.0744,-2.0744,-2.074,-2.076,-2.0763,-2.0776,-2.0751,-2.0809,-2.0811,-2.0812,-2.0832,-2.0836,-2.0839,0,0,0,0,0,-2.0706,-2.0727,-2.0722,-2.0726,-2.0741,-2.0756,-2.0758,-2.0753,-2.0743,-2.0752,-2.0752,-2.0744,-2.0773,-2.0762,-2.0765,-2.0779,-2.0808,-2.081,-2.0812,-2.083,-2.0835,-2.0839,0,0,0,0,0,0,-2.0725,-2.0728,-2.0722,-2.0745,-2.075,-2.0753,-2.0765,-2.0758,-2.0767,-2.0764,-2.0758,-2.0759,-2.0779,-2.0781,-2.0769,-2.0803,-2.0789,-2.0791,-2.0801,-2.0805,-2.0809,-2.0808,-2.0752,0,0,0,0,0,-2.0732,-2.0744,-2.0745,-2.0765,-2.0768,-2.0766,-2.0772,-2.0768,-2.0773,-2.0776,-2.0777,-2.0782,-2.0792,-2.0799,-2.0809,-2.0832,-2.0832,-2.0843,-2.0847,-2.0849,-2.0852,-2.0863,-2.0868,-2.082,-2.082,-2.082,0,0,-2.0747,-2.0749,-2.0757,-2.0769,-2.0773,-2.0785,-2.0768,-2.0782,-2.079,-2.0778,-2.0795,-2.0796,-2.0801,-2.0822,-2.0832,-2.0824,-2.0865,-2.0852,-2.0854,-2.0855,-2.0866,-2.087,-2.0874,-2.0822,-2.0821,-2.0821,0,0,-2.0779,-2.0782,-2.0799,-2.0803,-2.0808,-2.0806,-2.081,-2.0814,-2.0814,-2.0831,-2.0822,-2.0832,-2.085,-2.0853,-2.0858,-2.089,-2.0882,-2.0894,-2.0912,-2.0923,-2.0927,-2.093,-2.0941,-2.0945,-2.0896,-2.0896,-2.0896,0,-2.0796,-2.0814,-2.0808,-2.0822,-2.0827,-2.0816,-2.0833,-2.0836,-2.0845,-2.0848,-2.084,-2.0862,-2.0865,-2.0886,-2.0893,-2.0898,-2.0901,-2.0893,-2.0927,-2.093,-2.0933,-2.0943,-2.0947,-2.0897,-2.0897,-2.0897,-2.0897,0,-2.0834,-2.0846,-2.0859,-2.0867,-2.0873,-2.0888,-2.0885,-2.0892,-2.0888,-2.0887,-2.0904,-2.0907,-2.0916,-2.0921,-2.0917,-2.0941,-2.0936,-2.0928,-2.0913,-2.0939,-2.0948,-2.0952,-2.0899,-2.0899,-2.0898,-2.0898,0,0,-2.0879,-2.0883,-2.0887,-2.089,-2.0895,-2.0904,-2.0918,-2.0927,-2.0933,-2.0939,-2.095,-2.0965,-2.0957,-2.0962,-2.0958,-2.0968,-2.0992,-2.0958,-2.0958,-2.0963,-2.1018,-2.1024,-2.1029,-2.0987,-2.0988,-2.0988,-2.1017,0,-2.091,-2.0934,-2.0929,-2.0953,-2.0964,-2.0953,-2.0965,-2.0969,-2.0969,-2.0977,-2.0977,-2.0987,-2.0976,-2.0978,-2.0988,-2.0987,-2.1003,-2.0985,-2.0997,-2.0997,-2.0995,-2.1034,-2.104,-2.1067,-2.1021,-2.1022,-2.1022,0,-2.095,-2.0956,-2.0981,-2.0983,-2.0987,-2.0998,-2.1005,-2.1014,-2.1018,-2.1017,-2.1022,-2.1016,-2.1029,-2.1015,-2.1033,-2.1021,-2.1025,-2.1026,-2.1027,-2.1027,-2.1011,-2.1034,-2.1076,-2.108,-2.1028,-2.1027,-2.1027,0,-2.0979,-2.0994,-2.101,-2.1013,-2.1016,-2.1024,-2.1026,-2.1029,-2.1034,-2.104,-2.1044,-2.1052,-2.1056,-2.1062,-2.1058,-2.1048,-2.1076,-2.1062,-2.1075,-2.1075,-2.1081,-2.108,-2.1123,-2.1085,-2.1085,-2.1085,-2.1085,0,-2.1014,-2.1029,-2.1023,-2.1033,-2.105,-2.1044,-2.106,-2.106,-2.1063,-2.1073,-2.1064,-2.1073,-2.1068,-2.1076,-2.1073,-2.1088,-2.109,-2.1089,-2.1088,-2.1089,-2.1089,-2.1092,-2.1089,-2.1086,-2.1086,-2.1086,-2.1085,0,-2.1049,-2.1046,-2.1062,-2.1064,-2.1064,-2.1076,-2.1077,-2.1086,-2.1084,-2.1096,-2.1099,-2.1096,-2.1106,-2.1102,-2.1113,-2.1111,-2.1129,-2.1126,-2.1128,-2.1127,-2.114,-2.1138,-2.1185,-2.119,-2.115,-2.115,-2.115,0,-2.1071,-2.1082,-2.1084,-2.109,-2.1092,-2.1101,-2.1106,-2.1101,-2.1106,-2.1111,-2.1119,-2.1128,-2.1134,-2.115,-2.1149,-2.1156,-2.1153,-2.1169,-2.1154,-2.1155,-2.1152,-2.1151,-2.1152,-2.1171,-2.1172,-2.1172,-2.1173,0,-2.111,-2.1108,-2.1115,-2.1122,-2.1128,-2.1134,-2.1138,-2.1143,-2.1138,-2.1144,-2.1154,-2.1159,-2.1169,-2.1177,-2.1184,-2.1185,-2.1178,-2.1177,-2.118,-2.1182,-2.1182,-2.1181,-2.1135,-2.1176,-2.1176,-2.1175,-2.1175,-2.1175,-2.1139,-2.1148,-2.115,-2.1159,-2.1161,-2.1165,-2.1173,-2.1173,-2.118,-2.1188,-2.1184,-2.1194,-2.1197,-2.1205,-2.1207,-2.1215,-2.1209,-2.1214,-2.1215,-2.1216,-2.1218,-2.1181,-2.1217,-2.1217,-2.1217,-2.1216,-2.1216,0,-2.1177,-2.1178,-2.1185,-2.1191,-2.1198,-2.119,-2.1194,-2.12,-2.1209,-2.1213,-2.1219,-2.1229,-2.1237,-2.1236,-2.1243,-2.125,-2.1247,-2.1252,-2.1251,-2.1251,-2.1223,-2.1219,-2.1254,-2.1254,-2.1254,-2.1254,-2.1254,-2.1254,-2.1197,-2.1212,-2.121,-2.1225,-2.1225,-2.1235,-2.1238,-2.1242,-2.1244,-2.1256,-2.1262,-2.1261,-2.1263,-2.127,-2.1276,-2.1276,-2.1278,-2.1285,-2.1283,-2.1257,-2.1253,-2.125,-2.1246,-2.1286,-2.1286,-2.131,-2.131,-2.131]}]]